Muskegon, MI

4:30 PM EST on February 08, 2016 (GMT -0500)
Muskegon County

Weather History for KMKG - June, 2013

Change the Weather History Date:

Saturday, June 29, 2013

  Actual Average Record
Temperature  
Mean Temperature 69 °F 70 °F  
Max Temperature 74 °F 79 °F 93 °F (1964)
Min Temperature 63 °F 60 °F 44 °F (1914)
Degree Days  
Heating Degree Days 0 1  
Month to date heating degree days 52 65  
Since 1 June heating degree days 52 65  
Since 1 July heating degree days 6324 6559  
Cooling Degree Days 4 6  
Month to date cooling degree days 92 100  
Year to date cooling degree days 152 129  
Since 1 June cooling degree days 92 100  
Growing Degree Days 18 (Base 50)    
Moisture  
Dew Point 61 °F    
Average Humidity 74    
Maximum Humidity 87    
Minimum Humidity 61    
Precipitation  
Precipitation 0.03 in 0.08 in 1.09 in (1904)
Month to date precipitation 4.33 2.47  
Year to date precipitation 27.02 14.74  
Snow  
Snow 0.00 in 0.00 in - ()
Month to date snowfall 0.0 0.0  
Since 1 June snowfall 0.0 0.0  
Since 1 July snowfall 98.6 93.7  
Snow Depth 0.00 in    
Sea Level Pressure  
Sea Level Pressure 29.65 in    
Wind  
Wind Speed 6 mph (NE)    
Max Wind Speed 17 mph    
Max Gust Speed 22 mph    
Visibility 10 miles    
Events Rain    
T = Trace of Precipitation, MM = Missing Value Source: NWS Daily Summary

Daily Weather History Graph

Daily Weather History Graph

Search for Another Location

Airport or City:

Trip Planner

Search our weather history database for the weather conditions in past years. The results will help you decide how hot, cold, wet, or windy it might be!

Date:

Astronomy

Jun. 29, 2013 Rise Set
Actual Time 6:08 AM EDT 9:28 PM EDT
Civil Twilight 5:32 AM EDT 10:04 PM EDT
Nautical Twilight 4:46 AM EDT 10:49 PM EDT
Astronomical Twilight 3:49 AM EDT 11:46 PM EDT
Moon 12:46 AM EDT (6/29) 1:31 PM EDT (6/29)
Length of Visible Light 16h 31m
Length of Day
15h 20m
Waning Gibbous, 56% of the Moon is Illuminated
Jun 29
Waning Gibbous
Jun 30
Last Quarter
Jul 8
New
Jul 15
First Quarter
Jul 22
Full

Hourly Weather History & Observations

Time (EDT) Temp. Dew Point Humidity Pressure Visibility Wind Dir Wind Speed Gust Speed Precip Events Conditions
12:55 AM 66.9 °F 62.1 °F 84% 29.59 in 10.0 mi NE 4.6 mph - N/A   Clear
1:55 AM 66.0 °F 61.0 °F 84% 29.59 in 10.0 mi Calm Calm - N/A   Partly Cloudy
2:55 AM 64.9 °F 61.0 °F 87% 29.58 in 10.0 mi NNE 4.6 mph - N/A   Clear
3:55 AM 64.0 °F 61.0 °F 90% 29.58 in 10.0 mi NNE 5.8 mph - N/A   Clear
4:55 AM 64.0 °F 60.1 °F 87% 29.59 in 10.0 mi NE 5.8 mph - N/A   Mostly Cloudy
5:55 AM 64.0 °F 61.0 °F 90% 29.60 in 10.0 mi North 3.5 mph - N/A   Mostly Cloudy
6:55 AM 64.9 °F 61.0 °F 87% 29.61 in 10.0 mi NNE 6.9 mph - N/A   Scattered Clouds
7:55 AM 66.9 °F 61.0 °F 81% 29.62 in 10.0 mi NNE 4.6 mph - N/A   Scattered Clouds
8:32 AM 68.0 °F 62.6 °F 83% 29.63 in 10.0 mi NNE 4.6 mph - N/A   Overcast
8:55 AM 70.0 °F 62.1 °F 76% 29.62 in 10.0 mi NNE 5.8 mph - N/A   Mostly Cloudy
9:32 AM 71.6 °F 62.6 °F 73% 29.63 in 10.0 mi NE 4.6 mph - N/A   Mostly Cloudy
9:55 AM 72.0 °F 62.1 °F 71% 29.63 in 10.0 mi Variable 5.8 mph - N/A   Mostly Cloudy
10:55 AM 73.0 °F 61.0 °F 66% 29.62 in 10.0 mi North 6.9 mph - N/A   Overcast
11:37 AM 73.4 °F 60.8 °F 65% 29.64 in 10.0 mi NE 3.5 mph - N/A   Overcast
11:55 AM 73.9 °F 61.0 °F 64% 29.63 in 10.0 mi NNE 5.8 mph - N/A   Overcast
12:03 PM 73.4 °F 62.6 °F 69% 29.64 in 10.0 mi Calm Calm - N/A   Overcast
12:55 PM 71.1 °F 64.0 °F 78% 29.64 in 5.0 mi NNE 6.9 mph - 0.00 in Rain Light Rain
1:06 PM 69.8 °F 62.6 °F 78% 29.65 in 10.0 mi ENE 15.0 mph - 0.00 in   Overcast
1:35 PM 69.8 °F 64.4 °F 83% 29.65 in 10.0 mi NE 8.1 mph - 0.00 in   Overcast
1:55 PM 70.0 °F 63.0 °F 78% 29.65 in 10.0 mi ENE 13.8 mph - 0.00 in   Overcast
2:02 PM 71.6 °F 64.4 °F 78% 29.66 in 10.0 mi NE 9.2 mph - N/A   Overcast
2:24 PM 73.4 °F 62.6 °F 69% 29.67 in 10.0 mi NE 11.5 mph - N/A   Overcast
2:55 PM 71.1 °F 62.1 °F 73% 29.67 in 10.0 mi NE 15.0 mph - N/A   Overcast
3:36 PM 66.2 °F 62.6 °F 88% 29.68 in 2.5 mi NE 11.5 mph - 0.01 in Rain Light Rain
3:46 PM 66.2 °F 60.8 °F 83% 29.68 in 3.0 mi NE 9.2 mph - 0.01 in Rain Light Rain
3:55 PM 66.9 °F 62.1 °F 84% 29.68 in 10.0 mi NE 9.2 mph 17.3 mph 0.01 in   Overcast
4:55 PM 71.1 °F 60.1 °F 68% 29.68 in 10.0 mi NE 6.9 mph - N/A   Mostly Cloudy
5:55 PM 73.0 °F 59.0 °F 61% 29.69 in 10.0 mi ENE 9.2 mph - N/A   Overcast
6:55 PM 72.0 °F 59.0 °F 64% 29.70 in 10.0 mi Variable 5.8 mph - N/A   Overcast
7:55 PM 72.0 °F 60.1 °F 66% 29.71 in 10.0 mi NE 3.5 mph - N/A   Overcast
8:55 PM 71.1 °F 57.9 °F 63% 29.73 in 10.0 mi NNE 6.9 mph - N/A   Mostly Cloudy
9:55 PM 70.0 °F 57.9 °F 65% 29.74 in 10.0 mi NNE 4.6 mph - N/A   Mostly Cloudy
10:55 PM 68.0 °F 57.9 °F 70% 29.77 in 10.0 mi NE 4.6 mph - N/A   Mostly Cloudy
11:55 PM 68.0 °F 57.9 °F 70% 29.77 in 10.0 mi NNE 4.6 mph - N/A   Overcast